Location: Home
(42.5358°N, 72.7383°W)
Time: 00:49:59
(UTC-05:00)

Vanguard 3 - Pass Details

Date: 07 December 2021
Orbit: 508 x 3260 km, 33.3° (Epoch: 21 January)

Event Time Altitude Azimuth Distance (km) Brightness Sun altitude
Rises 22:24:27 0° 168° (SSE) 5,860 - -64.4°
Reaches altitude 10° 22:33:32 10° 138° (SE) 5,569 - -65.5°
Maximum altitude 22:37:07 11° 125° (SE) 5,697 - -65.9°
Drops below altitude 10° 22:40:54 10° 113° (ESE) 5,957 - -66.4°
Exits shadow 22:51:51 - 86° (E) 7,192 11.9 -67.5°
Sets 22:52:07 0° 85° (E) 7,230 11.9 -67.6°
